DELTA 1 DEB, 26826

Orbit data source: Space-Track

DELTA 1 DEB, 26826 is space debris in SSO originally from a launch on Thu, 12 Jun 1975 UTC launched from the Air Force Western Test Range (AFWTR). Debris objects in space refer to the collection of defunct objects orbiting the Earth. Examples of debris include non-operational satellites, rocket bodies, and fragments generated from explosions, collisions, or faulty payload assembly.

Loading next visibility...
Identifier
26826, 1975-052KE
Orbit
SSO
Country
Flag of USUS
Related business
Manufacturer
Unknown
Mission
Spacecraft
Bus & Motor
Unknown
Mass
Unknown
Launch date (UTC)
1975-06-12 (50 years ago)
Launch vehicle
Unknown
Launch site
Air Force Western Test Range (AFWTR)
Object type
Payload
Rocket body
Debris
Shape & HBR
Unknown shape, 0.1 m
Radar Cross Section
Small (<0.1 m²)

Expand to show TLE details & history
Last TLE update: 23 hours ago

TLE from 23 hours ago
0 DELTA 1 DEB
1 26826U 75052KE  25294.88438676 -.00000405  00000-0 -10098-2 0  9996
2 26826  99.6052 264.6543 0298991 325.2096  89.1893 12.98606554614658
Epoch: 2025-10-21T21:13Z
TLE epoch observation values (Epoch: 2025-10-21T21:13:31.016Z)
Latitude
56.66348°
Longitude
-99.12263°
Altitude
1,280.526 km
Speed
7.219 km/s
True Right ascension
16h 39m 17s
True Declination
56° 30' 58"
Sunlit
Object was in daylight at epoch
Visualization orbit readout
Latitude
Unknown
Longitude
Unknown
Altitude
Unknown
Speed
Unknown
Apparent Right ascension
Unknown
Apparent Declination
Unknown
Sunlit
N/A
Visualization observer readout
Local Sidereal Time
15:08:42
Azimuth
Unknown
Elevation
Unknown
Doppler factor
Unknown
Orbital elements
Apogee altitude
1,493.437 km
Perigee altitude
1,036.396 km
Semi-major axis
7,643.054 km
Eccentricity
0.0299
Inclination
99.6052°
RAAN
264.6543°
Arg. of periapsis
325.2096°
True anomaly
92.61491°
Mean anomaly
89.1893°
Eccentric anomaly
90.90218°
Mean motion
3.2482 °/min
Orbital period
110.83 mins
BSTAR
-0.0010098
Loading maneuver chart data...
Computing Atmospheric mass density...

Documentation

Showing up to 5 results
|